Погода в Вуллонгонге

Австралия     34°23′26″S   150°52′46″E
В апреле 2022 года жителям России запретили посещать сайт meteo.paraplan.net по решению Генеральной прокуратуры. Аудитория сайта уменьшилась в 10 раз. Владельцы сайта не видят смысла в поддержке погодного сервера в таких условиях. Сайт будет закрыт в октябре.
темп.,
°C
ветер,
м/с
пор.,
м/с
влажн.,
%
обл.,
%
осадки,
мм/ч
давл.,
гПа
погр.,
м
5 октября, ср
ср523:00+17ююв9971100 0.3 10261035
02:00+17ююв776785 0.1 10261056
05:00+16вюв7768100 0.1 10261148
08:00+17в8972100 0.3 10271086
11:00+16в9973100 1.1 10281136
14:00+16в111174100 0.6 10261178
17:00+16в111175100 1.9 10241162
20:00+15в121281100 3.6 10261004
6 октября, чт
чт623:00+15всв111283100 6.2 1027939
02:00+16всв121380100 1.4 10241002
05:00+15св131487100 5.7 10241051
08:00+16св111389100 7.8 10241026
11:00+16ссв91090100 14.9 1024818
14:00+14ссз3687100 4.1 1023431
17:00+15с4787100 5.6 1022444
20:00+16с688463 0.1 1022620
7 октября, пт
пт723:00+15ссз588756 0.1 1022480
02:00+15ссз46860 0.0 1020368
05:00+14ссз348670 0.0 1018310
08:00+15ссз458567 0.0 1019324
11:00+17ссв5777100 0.0 1018585
14:00+18ссв8984100 0.1 1015347
17:00+18с71182100 0.3 1014450
20:00+18ссв6886100 0.1 1015347
8 октября, сб
сб823:00+17ссз4686100 0.1 1015370
02:00+17сз24864 0.0 1014286
05:00+16ссз33855 0.0 1014156
08:00+17зсз3382100 0.0 1016181
11:00+18юз3380100 0.2 1017125
14:00+17ююв4491100 1.1 1016299
17:00+17в6691100 2.1 1014498
20:00+17всв5696100 12.6 1014350
9 октября, вс
вс923:00+16ююз161794100 35.9 1013863
02:00+14ю192192100 11.2 10101062
05:00+14ююз182187100 16.9 10091327
08:00+10юз131885100 1.3 1012891
11:00+10зюз101379100 2.6 1016994
14:00+14юз7861100 0.3 10171446
17:00+14з10126689 0.3 10181036
20:00+13зюз69646 0.0 1021998